Location: Observatorio Las Palmas
(29.0667°N, 110.9333°W)
Time: 05:52:48
(UTC-07:00)

Daily predictions for brighter satellites

Satellite Brightness Start Highest point End
(mag) Time Altitude Azimuth Time Altitude Azimuth Time Altitude Azimuth
Lacrosse 5 4.5 00:40:43 16° N 00:40:43 16° N 00:42:20 10° N
SL-16 R/B 4.3 00:33:42 10° NNW 00:35:24 20° NNW 00:35:24 20° NNW
USA 234 4.3 00:52:05 38° NE 00:52:30 38° NE 00:58:26 10° NNW
ATLAS 3B CENTAUR R/B 4.3 00:38:30 10° WSW 01:06:56 80° S 01:16:21 10° E
COSMOS 2428 4.3 01:13:04 10° N 01:16:27 31° NNE 01:16:27 31° NNE
Cosmos 2360 Rocket 4.2 01:15:40 10° NNW 01:17:34 22° NNW 01:17:34 22° NNW
Cosmos 2333 Rocket 3.5 01:46:00 10° N 01:50:57 35° ENE 01:50:57 35° ENE
Cosmos 2297 Rocket 3.3 01:56:55 40° NE 01:56:55 40° NE 02:00:41 10° NNE
Cosmos 2219 Rocket 3.1 02:00:12 10° NNW 02:04:23 46° NNE 02:04:23 46° NNE
DELTA 2 R/B (1) 4.4 02:14:18 46° NNE 02:14:18 46° NNE 02:18:23 10° NE
Cosmos 2237 Rocket 3.0 02:17:20 10° N 02:22:43 45° ENE 02:23:26 43° E
NPP 4.5 02:21:04 10° N 02:24:51 43° NNW 02:24:51 43° NNW
Lacrosse 4 Rocket 3.6 02:28:51 21° ENE 02:28:51 21° ENE 02:30:48 10° NE
SL-16 R/B 3.3 02:26:03 35° ESE 02:28:04 48° ENE 02:33:57 10° N
IRS-1D 4.1 02:25:09 10° NNE 02:29:46 56° ENE 02:29:46 56° ENE
Cosmos 2227 Rocket 3.0 02:33:48 42° NW 02:33:48 42° NW 02:38:08 10° N
Sich 1 4.3 02:41:35 37° ENE 02:41:35 37° ENE 02:45:08 10° NNE
BREEZE-M R/B 4.3 02:50:35 55° S 02:51:53 63° SE 02:56:45 10° NE
Resurs 1-4 Rocket 2.1 02:49:22 10° N 02:54:23 74° NW 02:54:23 74° NW
ADEOS 3.5 02:52:23 10° N 02:57:25 77° NW 02:57:25 77° NW
ADEOS Rocket 3.6 02:50:22 10° N 02:57:52 67° WNW 02:59:38 53° SW
ATLAS 2AS CENTAUR R/B 2.8 02:52:25 10° NW 03:00:06 61° WSW 03:01:00 57° SW
Cosmos 2034 Rocket 4.1 02:56:27 10° N 03:02:49 75° E 03:05:27 38° SSE
Cosmos 1455 3.5 02:59:57 10° N 03:02:20 36° N 03:02:20 36° N
ADEOS II 4.5 03:01:13 10° NE 03:04:31 17° E 03:07:49 10° SE
BREEZE M DEB (TANK) 4.2 03:08:59 29° E 03:08:59 29° E 03:10:21 10° ENE
OAO 3 Rocket 4.0 03:08:57 41° SE 03:08:57 41° SE 03:13:06 10° E
CZ-2D R/B 2.3 03:04:27 10° N 03:09:26 54° WNW 03:09:26 54° WNW
Tsikada Rocket 3.9 03:10:21 51° S 03:12:06 87° W 03:18:31 10° N
Cosmos 1570 Rocket 3.9 03:08:12 10° NNW 03:13:35 88° ENE 03:15:08 48° SSE
Cosmos 1869 3.9 03:09:58 10° N 03:13:54 52° E 03:14:20 49° ESE
ARIANE 5 R/B 2.9 03:14:26 10° N 03:19:11 44° WNW 03:19:11 44° WNW
GPS 2-04 Rocket1 3.7 03:20:18 32° NW 03:21:43 45° NNE 03:25:48 10° E
Cosmos 1707 Rocket 3.4 03:18:00 10° N 03:22:23 87° W 03:22:41 78° S
Cosmos 1666 Rocket 4.0 03:30:27 44° WNW 03:30:27 44° WNW 03:34:23 10° N
MOS 1 Rocket 3.5 03:27:11 10° N 03:32:25 80° WNW 03:34:17 42° SSW
Cosmos 2333 Rocket 3.8 03:30:45 10° NW 03:32:52 18° WNW 03:32:52 18° WNW
Cosmos 2297 Rocket 4.0 03:38:44 15° WNW 03:39:31 15° WNW 03:42:44 10° NNW
Cosmos 1933 Rocket 3.7 03:38:08 33° S 03:40:02 71° E 03:44:29 10° N
USA 161 3.8 03:41:52 14° NNE 03:41:52 14° NNE 03:42:19 10° N
Cosmos 1486 Rocket 3.9 03:41:27 36° SSW 03:43:39 90° WNW 03:48:53 10° NNE
UNKNOWN OBJECT B 3.5 03:40:24 10° N 03:44:01 36° WNW 03:44:01 36° WNW
ISS -3.0 03:49:25 10° NNW 03:52:37 52° NE 03:55:48 10° ESE
ATLAS 3B CENTAUR R/B 2.6 03:40:20 10° W 03:53:08 76° SSW 03:57:41 10° ESE
FUSE 4.5 03:59:00 30° SW 04:00:33 37° SSW 04:05:26 10° SE
Lacrosse 4 Rocket 3.1 04:05:12 17° WNW 04:05:58 17° WNW 04:08:47 10° NNW
Okean O Rocket 1.8 04:01:56 10° NNE 04:06:15 69° ESE 04:10:08 13° S
Cosmos 2237 Rocket 3.8 04:02:47 10° WNW 04:05:10 16° W 04:05:10 16° W
Hubble Space Telescope 3.0 04:08:16 12° S 04:08:16 12° S 04:08:45 10° S
SL-16 R/B 2.4 04:01:27 10° NNW 04:06:53 48° WSW 04:12:18 10° S
GOES 2 Rocket 4.3 04:00:13 15° W 04:07:34 86° S 04:14:01 10° E
Cosmos 468 Rocket 3.9 04:03:54 10° NNW 04:09:03 66° WSW 04:14:06 10° S
GP-B 3.3 04:04:37 10° N 04:09:03 73° E 04:13:28 10° S
ATLAS 5 CENTAUR R/B 1.7 04:07:16 22° SSW 04:10:11 78° ESE 04:15:02 10° NNE
CZ-4B R/B 3.6 04:04:57 10° NNE 04:10:14 61° ESE 04:15:35 10° S
Cosmos 1634 Rocket 3.9 04:04:06 10° N 04:10:16 80° W 04:16:25 10° S
Meteor 2-3 Rocket 4.0 04:04:57 10° S 04:10:32 69° E 04:16:13 10° NNE
Cosmos 1933 3.3 04:07:10 10° N 04:11:16 85° W 04:15:21 10° S
SL-16 R/B 3.7 04:11:07 19° WSW 04:11:49 20° W 04:16:07 10° NW
Cosmos 1470 Rocket 4.2 04:12:58 25° WSW 04:14:38 34° W 04:18:35 10° NNW
BREEZE-M DEB (TANK) 4.3 04:08:13 10° NW 04:17:13 32° WSW 04:20:39 10° S
OAO 3 Copernicus 4.2 04:14:44 10° WNW 04:19:50 85° SSW 04:24:54 10° ESE
Cosmos 1503 Rocket 4.0 04:17:45 14° SSW 04:22:24 78° WNW 04:27:41 10° NNE
CZ-4B DEB 4.2 04:18:47 10° NNE 04:24:16 88° ESE 04:29:44 10° SSW
Cosmos 1869 Rocket 4.1 04:21:47 10° S 04:26:11 61° E 04:30:36 10° NNE
Cosmos 1400 Rocket 3.2 04:23:59 19° SW 04:26:21 40° W 04:30:04 10° N
Cosmos 1892 2.7 04:27:16 12° SSW 04:30:44 61° W 04:34:30 10° N
Cosmos 1814 Rocket 4.1 04:26:09 10° NNW 04:31:24 58° WSW 04:36:37 10° S
Cosmos 1763 Rocket 3.4 04:27:46 10° NNW 04:32:59 77° WSW 04:38:05 10° S
Okean-O 4.2 04:33:16 10° NNE 04:37:20 35° E 04:41:22 10° SSE
Cosmos 2263 Rocket 2.1 04:33:55 10° SSW 04:39:28 76° WNW 04:45:03 10° NNE
Meteor 1-31 Rocket 3.7 04:37:04 10° NNE 04:40:54 50° E 04:44:40 10° S
PAYLOAD B 4.4 04:38:08 10° N 04:43:28 54° WNW 04:48:47 10° SSW
CZ-3 R/B 3.3 04:08:25 10° W 04:44:02 81° SSW 04:51:29 10° ESE
ADEOS II 2.6 04:39:23 10° N 04:44:20 42° WNW 04:49:15 10° SW
CZ-4B R/B 4.0 04:45:56 10° NNW 04:49:43 30° WNW 04:53:20 10° SW
PSLV R/B 4.2 04:47:33 10° N 04:51:25 36° WNW 04:55:15 10° SW
NOSS 3-4 (A) 4.0 04:44:32 10° NW 04:51:34 53° WSW 04:58:57 10° S
NOSS 3-4 (C) 4.0 04:44:38 10° NW 04:51:40 53° WSW 04:59:04 10° S
OAO 3 Rocket 3.6 04:47:01 10° W 04:51:55 63° NNW 04:56:47 10° ENE
EO 1 Del DPAF 3.5 04:48:15 10° SSE 04:52:04 76° ENE 04:55:54 10° N
Cosmos 371 Rocket 3.7 04:48:23 10° NNW 04:52:52 40° WSW 04:57:20 10° S
SEDSat Delta rocket 4.4 04:47:02 10° SW 04:53:27 59° SSE 05:00:08 10° E
Meteor 1-26 Rocket 4.4 04:48:37 10° NNW 04:54:11 55° W 04:59:37 10° S
USA 215 3.3 04:49:40 10° NE 04:56:12 76° NW 05:02:42 10° SW
Cosmos 2221 Rocket 3.8 04:54:07 10° N 04:58:40 83° E 05:03:11 10° S
Okean 1-7 3.2 04:55:45 10° N 05:00:01 78° E 05:04:15 10° S
Meteosat 1 Rocket2 2.6 04:57:03 10° W 05:00:58 78° S 05:04:35 10° E
GPS 2-04 Rocket1 3.0 04:57:30 10° WNW 05:01:37 54° SSW 05:05:49 10° SE
